Regional Weather Roundup
Issued by NWS

Home | Current Version | Previous Version | Graphics & Text | Print | Product List | Glossary On
Versions: 1 2 3 4 5 6 7 8 9 10 11 12 13 14 15 16 17 18 19 20 21 22 23 24 25 26 27 28 29 30 31 32 33 34 35 36 37 38 39 40 41 42 43 44 45 46 47 48 49 50
506
ASUS43 KLSX 211507
RWRMO

WEATHER SUMMARY FOR MISSOURI
NATIONAL WEATHER SERVICE SPRINGFIELD MO
1000 AM CDT MON MAY 21 2018

NOTE: "FAIR" INDICATES FEW OR NO CLOUDS BELOW 12,000 FEET WITH NO
       SIGNIFICANT WEATHER AND/OR OBSTRUCTIONS TO VISIBILITY.
       CURRENT SKY AND/OR WEATHER CONDITIONS ARE NOT AVAILABLE FOR
       CHILLICOTHE AND FARMINGTON.

MOZ001>031-035>038-043-044-053-054-211600-
...NORTHERN AND WESTERN MISSOURI...

CITY           SKY/WX    TMP DP  RH WIND       PRES   REMARKS
KANSAS CTY INT CLOUDY    60  57  89 W9        30.07S
KANSAS C DTWN  CLOUDY    64  57  78 W7        30.07R
LEE`S SUMMIT   CLOUDY    63  61  93 W7        30.08S
ST JOSEPH      CLOUDY    60  58  92 W8        30.06S
CHILLICOTHE      N/A     66  63  90 VRB3      30.06R
KIRKSVILLE     PTSUNNY   71  65  81 W9G18     30.03F

$$
MOZ066>068-077>081-088>096-101>105-211600-
...SOUTHWEST MISSOURI...

CITY           SKY/WX    TMP DP  RH WIND       PRES   REMARKS
SPRINGFIELD    CLOUDY    70  65  84 W8        30.08R
JOPLIN         CLOUDY    65  63  93 CALM      30.09S FOG
BRANSON        PTSUNNY   72  68  88 S8        30.10S

$$
MOZ032>034-039>042-045>050-055>058-069>072-211600-
...CENTRAL MISSOURI...

CITY           SKY/WX    TMP DP  RH WIND       PRES   REMARKS
COLUMBIA       CLOUDY    68  65  90 SW10      30.06R
JEFFERSON CITY CLOUDY    69  66  90 S3        30.05S
ROLLA          CLOUDY    70  66  87 SW12      30.07F
SEDALIA        CLOUDY    70  67  90 W7        30.07S
WHITEMAN AFB   CLOUDY    64  63  96 W7        30.03S FOG
WARRENSBURG    CLOUDY    64  61  88 W7        30.07S
OSAGE BEACH    CLOUDY    70  68  93 VRB3      30.07S

$$
MOZ051-052-059>065-211600-
...EAST CENTRAL MISSOURI...

CITY           SKY/WX    TMP DP  RH WIND       PRES   REMARKS
ST LOUIS INTL  CLOUDY    69  67  93 SW7       30.07S
SPIRIT OF STL  CLOUDY    69  66  90 S6        30.05F
ST CHARLES     LGT RAIN  69  66  90 S6        30.06S

$$
MOZ072>076-082>087-097>100-106>115-211600-
...SOUTH CENTRAL AND SOUTHEAST MISSOURI...

CITY           SKY/WX    TMP DP  RH WIND       PRES   REMARKS
CAPE GIRARDEAU PTSUNNY   72  67  84 S5        30.07R
FARMINGTON     PTSUNNY   70  66  87 W3        30.06F
POPLAR BLUFF   FAIR      73  69  87 CALM      30.06R
WEST PLAINS    CLOUDY    69  66  90 VRB6      30.10S

$$




USA.gov is the U.S. government's official web portal to all federal, state and local government web resources and services.